Wind_Speed
62 64 69 75 79 84 85 85 86 90 94 101 99 101 100 100 98 89 77 66 60 58 53 43 33 28 32 38 45 52 70 78 79 81 86 88 92 96 96 96 95 94 95 97 98 101 106
59 63 69 73 79 84 87 86 86 90 95 100 103 103 101 104 99 93 82 73 64 59 55 46 35 29 28 34 42 47 59 71 79 82 86 88 90 97 98 97 96 95 97 99 97 103 106
57 59 68 71 76 81 85 85 86 89 92 99 105 106 108 106 101 98 87 76 68 64 59 48 36 29 22 25 38 45 52 65 78 80 85 84 92 95 97 99 98 97 96 99 96 102 104
57 59 67 70 73 79 84 87 86 88 93 98 105 108 109 109 105 102 90 76 72 67 63 51 38 27 18 18 31 42 51 61 77 81 84 87 88 93 100 99 100 98 95 96 95 97 103
57 57 64 68 71 78 82 85 85 87 89 94 102 108 111 111 107 100 96 80 73 67 64 53 42 29 17 8 22 42 51 59 72 78 82 84 85 89 93 100 101 98 94 92 92 93 102
57 58 61 66 70 75 80 83 85 85 88 92 100 107 111 111 106 101 98 86 74 67 64 57 44 31 19 6 14 29 42 50 63 75 82 83 83 83 85 92 92 93 95 94 92 96 104
56 56 58 65 69 74 78 82 84 81 86 90 96 105 108 108 108 106 99 92 79 72 64 60 47 32 22 9 12 28 31 45 59 71 80 83 81 75 79 84 89 95 99 97 97 102 103
57 55 58 63 68 72 75 80 83 82 85 88 94 101 107 109 109 107 104 94 84 71 66 62 50 37 24 14 3 21 30 45 61 69 74 77 77 77 77 80 83 90 95 94 96 102 103
59 55 57 60 65 70 75 78 82 79 83 85 90 98 104 106 108 104 105 99 89 75 65 60 53 40 29 18 8 10 23 39 51 60 67 72 75 74 73 75 78 84 89 91 94 98 100
58 55 56 56 63 67 73 77 81 79 79 82 87 95 100 104 107 107 104 100 91 81 70 60 56 43 32 19 13 0 21 35 43 49 54 54 60 64 65 65 73 80 83 84 88 92 96
59 55 54 56 61 63 70 74 78 80 79 82 85 90 96 100 106 106 98 99 93 84 72 64 54 49 34 23 14 10 4 22 35 43 45 48 53 59 62 64 69 74 78 79 82 86 92
58 57 55 56 60 61 67 71 74 78 77 78 82 86 92 98 100 103 98 97 92 82 77 64 54 49 38 26 15 14 5 13 27 33 37 45 52 58 62 63 65 70 73 75 76 80 88
59 58 55 54 59 58 64 69 73 78 75 78 80 84 86 92 95 100 102 97 90 82 79 66 53 47 40 29 17 12 8 9 26 20 23 33 46 51 59 61 62 65 69 71 71 75 84
58 57 56 55 56 56 61 68 71 76 74 76 78 82 86 88 92 97 100 94 89 81 75 65 53 44 39 31 16 10 11 4 2 7 6 6 29 39 48 55 60 62 66 68 70 72 80
58 56 54 53 53 54 59 66 70 74 72 73 76 80 85 87 93 102 103 93 89 83 75 68 59 43 36 31 20 8 8 9 3 5 8 2 3 24 39 46 51 54 58 62 66 70 73
57 56 53 53 52 52 59 63 69 71 69 71 75 76 82 83 88 96 104 94 89 83 76 67 59 49 37 30 22 12 6 7 8 11 11 8 11 9 7 30 40 49 56 55 58 63 68
56 57 55 51 53 53 56 62 67 70 69 70 73 76 79 82 87 88 100 97 89 84 74 64 59 48 38 31 23 15 7 3 12 14 16 11 9 11 13 22 30 41 44 50 55 57 63
56 58 57 51 52 52 56 60 64 68 68 67 71 75 79 80 87 89 95 102 90 84 77 68 56 49 39 31 24 17 11 3 3 9 11 15 19 17 21 21 27 30 41 47 55 59 62
56 58 58 54 51 52 55 61 62 66 66 66 69 73 76 80 83 85 94 104 95 88 77 65 56 43 35 29 29 20 15 11 5 7 12 13 17 21 24 28 32 33 40 44 48 51 54
54 60 59 55 51 52 55 58 61 63 63 65 67 71 75 76 81 82 90 100 97 83 80 68 52 43 32 26 24 24 19 14 12 8 9 12 15 17 22 25 28 32 35 33 36 42 55
56 58 57 55 52 55 56 56 59 62 60 61 65 69 72 76 80 84 89 98 105 88 79 72 55 47 32 22 21 24 21 18 15 13 11 12 14 13 14 16 18 21 25 29 33 42 41
55 56 56 55 52 53 55 55 57 60 60 59 62 69 71 72 78 84 88 96 103 101 87 74 63 50 39 25 18 21 24 22 19 18 15 14 15 15 16 17 18 21 24 26 27 28 33
55 56 55 55 53 53 54 55 57 59 59 58 64 66 67 70 76 85 92 97 98 99 88 78 64 47 39 27 20 19 21 23 22 21 20 18 16 16 19 20 22 25 27 24 27 30 30
55 54 54 54 52 54 54 55 57 57 58 58 62 64 66 71 76 86 89 96 99 96 91 73 70 49 41 28 23 20 22 24 25 24 24 24 22 23 24 21 24 30 23 25 30 30 27
55 54 54 54 54 54 54 55 58 56 57 59 63 63 66 71 76 85 89 95 104 100 94 79 81 56 42 33 26 22 23 25 25 25 26 27 28 27 25 25 29 26 25 25 28 26 25
54 52 54 53 56 56 52 54 56 53 56 59 63 63 67 72 76 84 88 94 104 101 91 77 84 71 49 33 25 24 24 27 26 28 27 27 30 30 28 28 30 27 26 28 31 29 28
54 54 55 54 56 55 52 53 53 52 56 58 60 63 67 72 75 79 85 90 101 100 97 73 79 69 51 34 26 23 24 28 30 30 27 28 30 30 29 30 26 29 29 29 31 33 31
55 55 53 52 55 52 53 53 49 51 54 56 59 64 68 72 74 79 86 89 96 98 97 76 76 64 47 36 27 23 22 28 32 31 30 30 30 29 31 32 26 30 30 32 31 31 33
58 55 50 51 51 53 51 49 48 51 54 57 60 65 69 72 73 78 83 88 89 96 82 72 63 56 51 34 28 22 20 26 32 33 32 31 29 30 30 31 29 30 31 31 32 31 32
Wind_Direction
331 331 333 334 336 335 337 338 341 341 342 345 347 350 356 358 358 356 352 351 351 345 345 337 319 293 269 254 239 227 219 218 216 215 214 215 214 215 218 219 218 218 216 217 219 219 220
331 331 331 332 335 334 336 339 340 342 343 345 347 349 353 357 360 358 355 355 353 353 352 342 327 308 277 248 234 226 218 216 215 213 213 213 213 213 215 218 217 216 215 218 218 219 219
328 330 329 331 333 334 335 339 340 342 344 346 347 349 352 356 359 359 358 357 356 358 358 350 338 322 291 250 231 220 212 211 214 212 213 211 213 212 212 215 218 217 215 216 217 220 220
328 329 328 330 332 334 335 339 340 342 345 347 347 348 351 356 359 360 1 360 358 1 1 356 348 337 312 250 219 211 211 205 211 210 211 211 211 213 212 213 217 218 216 217 217 221 221
325 329 329 330 332 333 335 339 339 340 344 346 347 347 348 352 358 360 2 2 2 2 4 1 359 353 344 290 221 208 207 202 208 209 211 212 211 211 213 213 215 218 218 219 219 220 221
322 324 329 329 331 333 335 338 338 339 343 346 348 347 348 350 355 358 1 4 4 5 6 7 7 5 8 347 216 209 201 202 205 209 211 211 211 211 212 214 215 218 219 220 220 218 221
317 323 327 327 330 332 335 337 337 339 342 346 348 347 347 349 354 357 1 5 6 4 9 10 11 12 13 10 179 191 198 198 203 208 212 210 211 210 212 213 213 216 218 218 219 220 222
313 319 325 326 327 331 334 337 337 339 341 346 348 348 348 348 352 357 0 4 6 8 8 11 13 14 20 29 333 190 196 196 204 209 212 210 210 209 210 212 212 216 218 219 219 221 219
310 317 322 324 324 329 332 335 336 337 339 344 348 348 350 350 351 359 359 2 4 8 11 12 14 17 21 38 43 192 190 205 209 212 212 212 210 210 210 212 213 216 220 218 220 220 221
307 315 319 322 323 328 330 334 335 336 338 343 348 349 349 349 353 355 358 3 6 7 8 15 12 17 22 40 46 107 193 206 216 219 221 217 210 213 210 213 216 218 220 221 221 222 221
304 309 315 319 322 327 328 332 335 335 336 342 347 348 351 353 355 357 359 1 5 6 6 10 14 13 19 27 46 44 259 214 219 221 221 215 208 209 213 212 216 219 223 222 223 223 223
300 304 309 317 320 326 327 330 333 334 335 340 345 348 351 355 355 357 1 1 4 7 3 5 11 14 13 24 45 65 78 216 223 221 223 215 211 207 212 212 217 219 222 224 225 224 224
297 301 307 314 318 325 325 327 331 333 334 338 343 347 349 355 356 355 3 0 4 5 5 1 9 11 11 19 40 71 84 203 226 235 233 228 216 213 212 215 218 221 224 225 224 225 226
295 300 305 312 316 322 324 325 328 332 334 336 342 345 350 355 357 355 1 2 2 4 0 0 2 7 11 12 37 93 99 113 187 234 328 248 225 216 217 218 218 219 223 225 226 225 226
291 296 304 309 314 319 322 323 327 330 332 335 341 346 349 355 357 359 358 3 4 5 4 358 356 3 8 11 17 63 112 114 163 241 258 249 202 225 222 221 222 224 227 227 228 229 228
288 293 301 308 312 316 321 323 325 329 330 333 339 346 349 356 360 1 357 3 1 3 2 354 353 352 359 6 4 24 117 152 161 166 162 164 144 144 198 227 225 227 228 230 231 232 232
285 291 297 306 308 315 320 321 324 327 328 332 338 343 348 355 359 1 2 4 1 4 1 354 346 346 350 350 359 355 28 125 191 188 179 177 193 198 204 198 219 229 232 232 232 232 231
284 288 295 302 305 312 318 317 322 325 326 332 337 341 347 355 2 360 0 357 0 1 0 355 344 341 339 340 344 350 339 338 190 216 204 199 203 197 212 223 228 230 225 227 232 228 229
282 287 294 299 303 308 313 315 320 323 325 330 335 339 345 353 1 360 358 356 359 355 358 354 343 335 332 330 328 331 330 320 261 218 221 221 219 214 219 218 222 229 227 234 237 237 237
278 285 290 294 300 306 308 312 315 320 323 328 333 338 343 353 358 358 1 356 359 0 355 354 343 331 327 320 315 314 314 309 297 266 238 232 230 227 228 227 226 231 234 237 240 239 238
276 283 288 292 298 301 305 310 313 318 321 325 332 337 342 352 356 358 358 357 357 359 358 357 347 328 324 313 299 297 298 294 292 280 259 245 244 242 232 235 238 248 245 243 238 237 237
274 280 284 288 296 300 305 308 312 316 319 324 329 334 342 352 355 357 357 357 354 354 353 355 353 336 326 312 288 279 283 286 280 281 269 262 255 253 255 255 253 251 250 246 247 246 245
270 275 280 285 293 298 303 306 310 315 317 322 327 331 342 350 356 356 357 357 352 349 351 351 351 340 329 314 293 271 262 264 268 270 267 263 260 261 259 256 257 257 253 255 256 253 248
266 271 276 283 291 296 301 304 307 313 315 321 325 330 342 348 355 358 357 355 354 349 351 354 350 347 329 315 301 280 257 256 258 257 255 252 247 247 252 249 245 249 255 248 249 247 247
263 268 274 281 288 291 297 302 306 311 313 320 322 332 342 349 355 359 358 356 354 350 350 352 349 349 335 321 302 283 264 255 254 254 251 252 249 248 250 249 254 256 255 254 257 256 254
262 268 274 281 285 289 296 299 305 308 310 317 323 335 342 347 354 358 356 355 354 354 352 348 345 347 340 320 309 293 274 262 257 255 255 257 257 254 252 254 255 260 259 256 256 257 253
261 265 273 280 284 290 296 300 303 306 310 318 325 334 342 345 352 356 353 353 354 354 347 350 347 348 340 328 310 289 273 262 257 257 257 257 261 262 259 257 259 258 256 260 258 257 257
262 267 273 279 282 288 292 298 300 303 312 319 327 335 342 344 350 353 352 353 354 359 350 350 343 346 341 326 316 299 280 266 260 257 257 256 258 262 260 259 257 258 254 253 257 257 257
263 267 275 274 280 285 291 294 299 304 312 319 330 335 339 341 346 349 350 350 355 359 357 358 353 348 341 328 320 304 289 274 265 258 257 258 257 259 261 262 257 256 256 254 252 254 255
Height
10777 10766 10754 10743 10733 10718 10705 10692 10680 10666 10649 10630 10616 10595 10579 10564 10543 10519 10496 10481 10461 10442 10425 10412 10403 10398 10393 10394 10397 10408 10419 10435 10454 10470 10484 10501 10519 10537 10552 10566 10582 10600 10620 10625 10636 10649 10660
10775 10764 10752 10739 10729 10714 10699 10688 10676 10661 10644 10627 10608 10588 10572 10557 10536 10515 10490 10472 10453 10436 10417 10403 10393 10386 10380 10379 10383 10392 10407 10424 10439 10454 10470 10488 10506 10520 10536 10550 10566 10583 10600 10611 10626 10632 10643
10771 10762 10748 10737 10725 10712 10696 10685 10671 10657 10642 10622 10601 10581 10564 10548 10533 10511 10487 10466 10447 10429 10411 10397 10385 10376 10369 10368 10372 10382 10395 10413 10430 10445 10461 10478 10488 10507 10526 10536 10551 10566 10583 10597 10615 10619 10633
10767 10758 10745 10734 10722 10708 10692 10680 10667 10654 10637 10620 10596 10579 10561 10543 10527 10511 10487 10463 10445 10426 10408 10393 10381 10371 10363 10361 10365 10376 10387 10405 10415 10432 10448 10460 10477 10494 10509 10526 10537 10553 10572 10587 10605 10610 10623
10763 10754 10742 10731 10719 10705 10692 10679 10664 10651 10636 10621 10596 10576 10556 10539 10526 10508 10488 10466 10446 10427 10408 10395 10381 10369 10362 10360 10363 10368 10378 10396 10406 10425 10440 10453 10468 10483 10501 10514 10530 10549 10570 10585 10596 10605 10609
10758 10749 10739 10728 10716 10704 10690 10677 10661 10648 10633 10618 10598 10574 10554 10540 10523 10508 10487 10466 10448 10431 10413 10397 10383 10372 10364 10362 10364 10370 10379 10392 10407 10418 10430 10443 10459 10478 10496 10511 10536 10549 10559 10572 10583 10587 10596
10752 10744 10736 10724 10713 10700 10688 10674 10661 10649 10632 10617 10597 10575 10556 10539 10525 10507 10488 10467 10449 10432 10417 10400 10388 10376 10369 10366 10366 10371 10382 10391 10403 10411 10420 10435 10455 10479 10490 10502 10518 10527 10536 10549 10562 10571 10586
10747 10739 10731 10720 10709 10697 10687 10673 10658 10645 10630 10615 10597 10578 10558 10533 10522 10506 10486 10467 10453 10439 10420 10404 10394 10383 10375 10372 10372 10375 10382 10391 10395 10405 10416 10434 10453 10466 10478 10492 10506 10514 10525 10539 10550 10557 10569
10740 10735 10727 10717 10705 10694 10682 10673 10656 10644 10629 10616 10601 10583 10558 10534 10518 10509 10487 10469 10450 10438 10426 10412 10401 10390 10382 10379 10378 10381 10388 10392 10397 10405 10415 10429 10446 10461 10475 10486 10498 10505 10516 10528 10537 10547 10563
10733 10730 10724 10714 10703 10692 10680 10670 10654 10643 10630 10618 10603 10585 10563 10536 10516 10508 10490 10471 10454 10437 10426 10418 10406 10399 10389 10386 10385 10388 10391 10395 10398 10405 10416 10430 10451 10462 10473 10483 10489 10497 10508 10522 10531 10543 10558
10726 10723 10718 10710 10701 10690 10679 10666 10654 10640 10627 10615 10603 10587 10567 10538 10521 10506 10497 10475 10457 10440 10429 10421 10414 10405 10397 10393 10391 10392 10394 10396 10401 10406 10417 10433 10447 10458 10467 10475 10482 10493 10504 10514 10525 10537 10547
10719 10716 10712 10706 10696 10688 10675 10663 10654 10639 10627 10617 10603 10589 10569 10546 10526 10507 10497 10481 10462 10446 10434 10425 10419 10411 10407 10399 10396 10396 10399 10401 10404 10411 10419 10429 10438 10451 10459 10468 10478 10485 10496 10507 10518 10528 10541
10711 10708 10706 10701 10691 10684 10672 10661 10650 10638 10625 10614 10603 10589 10573 10552 10532 10511 10498 10482 10466 10453 10438 10429 10423 10416 10412 10406 10401 10401 10404 10407 10408 10411 10418 10427 10439 10447 10454 10463 10472 10482 10491 10500 10510 10520 10531
10703 10701 10699 10695 10686 10679 10669 10657 10648 10636 10624 10613 10603 10590 10573 10554 10532 10513 10501 10488 10472 10456 10443 10434 10427 10423 10417 10414 10409 10408 10408 10411 10415 10417 10419 10425 10437 10446 10454 10460 10465 10473 10482 10491 10500 10510 10517
10696 10693 10692 10688 10681 10673 10665 10655 10646 10634 10622 10613 10602 10590 10572 10555 10532 10512 10497 10491 10478 10461 10447 10436 10428 10427 10422 10418 10415 10411 10411 10413 10415 10419 10423 10426 10429 10438 10447 10454 10463 10471 10479 10485 10492 10500 10509
10687 10685 10684 10682 10675 10668 10660 10651 10641 10632 10622 10611 10599 10590 10575 10558 10539 10516 10498 10495 10478 10465 10451 10438 10430 10423 10423 10421 10418 10416 10413 10414 10417 10418 10421 10424 10426 10432 10439 10448 10458 10463 10467 10478 10485 10492 10499
10679 10676 10675 10676 10668 10662 10656 10646 10637 10628 10619 10608 10598 10588 10575 10558 10539 10522 10505 10494 10479 10466 10454 10442 10430 10426 10422 10421 10419 10417 10415 10413 10415 10416 10417 10420 10425 10429 10434 10437 10443 10452 10462 10468 10470 10479 10483
10670 10667 10666 10668 10662 10656 10649 10639 10634 10625 10614 10606 10597 10586 10573 10559 10537 10521 10505 10487 10481 10467 10456 10446 10434 10424 10417 10418 10418 10416 10415 10413 10412 10413 10415 10418 10422 10424 10427 10432 10436 10441 10444 10446 10449 10455 10460
10661 10658 10656 10658 10655 10649 10642 10634 10628 10621 10611 10603 10594 10585 10573 10555 10540 10524 10504 10486 10476 10464 10455 10445 10435 10424 10416 10411 10412 10414 10412 10413 10412 10411 10413 10415 10418 10420 10424 10429 10432 10435 10435 10439 10443 10449 10457
10652 10649 10647 10648 10646 10641 10636 10629 10621 10616 10608 10599 10591 10582 10569 10553 10539 10525 10509 10488 10471 10461 10452 10440 10432 10423 10414 10407 10407 10408 10408 10409 10410 10409 10409 10412 10413 10416 10419 10421 10425 10427 10431 10435 10440 10443 10440
10644 10642 10638 10637 10636 10634 10627 10622 10615 10609 10603 10595 10588 10580 10568 10551 10532 10517 10502 10484 10465 10457 10450 10438 10427 10420 10414 10407 10401 10399 10403 10404 10405 10406 10405 10406 10408 10410 10412 10415 10417 10419 10423 10427 10430 10431 10440
10633 10633 10630 10628 10628 10625 10620 10614 10608 10602 10596 10592 10584 10573 10562 10550 10531 10515 10500 10483 10462 10443 10444 10437 10427 10418 10414 10406 10401 10399 10397 10398 10400 10400 10400 10401 10402 10404 10405 10406 10408 10411 10413 10415 10418 10422 10423
10623 10623 10621 10620 10618 10615 10612 10606 10601 10596 10590 10585 10578 10570 10559 10546 10530 10513 10499 10482 10463 10445 10439 10433 10425 10415 10407 10404 10399 10396 10396 10395 10395 10395 10396 10395 10397 10398 10399 10401 10403 10404 10405 10410 10411 10412 10415
10612 10613 10612 10611 10609 10605 10602 10598 10594 10590 10583 10579 10572 10564 10551 10539 10527 10511 10495 10481 10458 10439 10426 10426 10419 10411 10402 10395 10393 10391 10391 10391 10392 10392 10393 10394 10394 10395 10395 10398 10398 10397 10402 10403 10401 10402 10407
10600 10602 10602 10601 10600 10596 10593 10591 10586 10583 10575 10570 10563 10555 10545 10534 10521 10507 10493 10476 10455 10431 10420 10415 10410 10404 10395 10388 10384 10383 10383 10384 10386 10387 10387 10388 10389 10390 10390 10392 10391 10393 10393 10394 10393 10396 10397
10589 10590 10591 10592 10589 10587 10586 10581 10578 10575 10567 10564 10554 10545 10536 10528 10515 10503 10489 10475 10453 10424 10409 10405 10402 10398 10390 10381 10377 10375 10375 10375 10378 10379 10380 10382 10383 10385 10384 10385 10385 10386 10387 10387 10387 10389 10389
10576 10578 10582 10581 10577 10577 10575 10573 10569 10566 10561 10555 10546 10537 10529 10522 10509 10499 10487 10474 10453 10424 10401 10398 10393 10387 10382 10377 10371 10368 10368 10368 10369 10371 10373 10374 10375 10378 10379 10378 10381 10380 10380 10381 10382 10382 10383
10564 10567 10571 10570 10567 10567 10564 10563 10560 10558 10554 10546 10537 10528 10521 10514 10505 10496 10483 10469 10454 10430 10402 10391 10388 10383 10377 10370 10365 10363 10362 10362 10361 10364 10366 10367 10368 10371 10372 10371 10375 10374 10375 10375 10375 10375 10376
10551 10556 10559 10558 10558 10554 10554 10553 10551 10549 10544 10537 10528 10521 10514 10507 10500 10492 10481 10468 10456 10434 10406 10386 10378 10374 10369 10363 10360 10356 10355 10356 10357 10357 10359 10360 10361 10362 10364 10366 10367 10367 10369 10370 10369 10369 10369